Regional Weather Roundup
Issued by NWS

Home | Current Version | Previous Version | Graphics & Text | Print | Product List | Glossary On
Versions: 1 2 3 4 5 6 7 8 9 10 11 12 13 14 15 16 17 18 19 20 21 22 23 24 25 26 27 28 29 30 31 32 33 34 35 36 37 38 39 40 41 42 43 44 45 46 47 48 49 50
000
ASUS43 KTOP 060859
RWRKS

WEATHER ROUNDUP FOR KANSAS
NATIONAL WEATHER SERVICE GOODLAND KS
300 AM CST FRI MAR 06 2015

NOTE:  "FAIR" INDICATES FEW OR NO CLOUDS BELOW 12,000 FEET WITH NO
SIGNIFICANT WEATHER AND/OR OBSTRUCTIONS TO VISIBILITY.

KSZ001>006-013>018-027>032-041>047-061000-
NORTHWEST KANSAS

CITY           SKY/WX    TMP DP  RH WIND       PRES   REMARKS
GOODLAND       CLEAR     27  21  78 W9        30.26S
HAYS           CLEAR     25   9  50 W5        30.29S
HILL CITY      CLEAR     26  15  63 W8        30.26F
RUSSELL        CLEAR     24  16  71 SW10      30.27F WCI  14
$$

KSZ061>065-074>080-084>089-061000-
SOUTHWEST KANSAS

CITY           SKY/WX    TMP DP  RH WIND       PRES   REMARKS
DODGE CITY     CLEAR     32  16  51 SW9       30.30F
ELKHART          N/A     31  21  66 W9          N/A
GARDEN CITY    CLEAR     25  19  78 SW7       30.28F
GREAT BEND     CLEAR     27  18  69 SW9       30.30F
LIBERAL        CLEAR     27  18  69 SW8       30.32F
$$

KSZ066>073-081>083-090>101-061000-
SOUTHEAST KANSAS

CITY           SKY/WX    TMP DP  RH WIND       PRES   REMARKS
CHANUTE        CLEAR     26  19  74 S12       30.44F WCI  16
COFFEYVILLE    CLEAR     26  19  74 S10       30.47F WCI  16
HUTCHINSON     CLEAR     28  20  71 S9        30.35S
MEDICINE LODGE   N/A     26  21  81 SE5       30.37F
NEWTON         CLEAR     30  18  59 SW15      30.36S WCI  19
PARSONS        CLEAR     25  19  78 S6        30.46F
WICHITA INTL   CLEAR     29  19  66 S13       30.38F WCI  19
WICHITA JABRA  CLEAR     31  18  58 S17       30.37F WCI  19
WICHITA MCCONL CLEAR     30  18  60 S15       30.38F WCI  19
WINFIELD       CLEAR     30  19  63 S14       30.43F WCI  19
$$

KSZ007>012-019>026-033>040-048>060-102>105-061000-
NORTHEAST KANSAS

CITY           SKY/WX    TMP DP  RH WIND       PRES   REMARKS
CONCORDIA      CLEAR     29  18  63 W10       30.27R WCI  20
EMPORIA        CLEAR     27  19  72 S15       30.35F WCI  15
LAWRENCE       CLEAR     23  16  74 S8        30.38F
MANHATTAN      CLEAR     31  21  66 SW13      30.31F WCI  21
OLATHE IND     CLEAR     23  15  71 S10       30.38F WCI  12
OLATHE EXE     CLEAR     25  16  68 S12       30.38F WCI  14
SALINA         CLEAR     30  21  69 S12       30.31F WCI  20
TOPEKA BILLARD CLEAR     28  18  66 S6        30.35F
TOPEKA FORBES  CLEAR     27  18  69 S10       30.34F WCI  17
$$


USA.gov is the U.S. government's official web portal to all federal, state and local government web resources and services.